www.pogodaiklimat.ru

Погода и климат >> Архив погоды >> Словения >> Мурска-Собота


ПОГОДА в Мурска-Соботе

  • Прогноз погоды в Мурска-Соботе
  • Монитор погоды в Мурска-Соботе

АРХИВ ПОГОДЫ в Мурска-Соботе

Время (UTC), дата Ветер
(напр.,м/с)
 
Видим.   Явления Облачность Т
(С)
Тd
(С)
f
(%)
Тe
(С)
Тes
(С)
Комфортность P
(гПа)
Po
(гПа)
Тmin
(С)
Tmax
(С)
R
(мм)
R24
(мм)
S
(см)
16 11.09 ЮВ 1
{2}
60 км 9/9 2000 м
[]
+22.3 +12.9 55 +25 +25 комфорт 1022.6 1000.9
17 11.09 Ю 1
{2}
60 км 10/10 2000 м
[]
+21.0 +13.3 61 +25 +25 комфорт 1022.8 1001.0
18 11.09 штиль 0
{1}
50 км 9/0 2000 м
[]
+19.5 +15.5 78 +21 +21 комфорт 1023.3 1001.6 +23.9
19 11.09 штиль 0
{1}
30 км 9/9
[]
+17.7 +14.6 82 +18 +18 1024.1 1002.1
20 11.09 С 1
{2}
35 км 9/9
[]
+17.0 +14.7 86 +18 +18 1024.7 1002.7
21 11.09 СЗ 1
{2}
26 км 6/6 1500 м
[]
+16.6 +14.5 87 +17 +17 1025.1 1003.0
22 11.09 СЗ 1
{2}
27 км 9/9
[]
+16.0 +14.4 90 +17 +17 1025.5 1003.4
23 11.09 З 1
{2}
22 км 9/9 1500 м
[]
+15.4 +13.7 90 +16 +16 1026.0 1003.8
00 12.09 З 1
{2}
21 км 9/0
[]
+14.3 +12.7 90 +15 +15 1025.9 1003.6
01 12.09 штиль 0
{2}
11 км ясно +13.5 +12.3 92 +13 +13 1026.3 1003.9
02 12.09 З 2
{4}
14 км ясно +13.1 +12.1 94 +12 +12 1026.5 1004.1
03 12.09 З 2
{3}
16 км ясно +13.0 +11.7 92 +12 +12 1026.9 1004.5
04 12.09 штиль 0
{2}
4200 м ясно +11.9 +10.8 93 +11 +11 1027.6 1005.1
05 12.09 ЮЗ 1
{3}
16 км ясно +11.8 +10.9 94 +12 +12 1028.4 1005.8
06 12.09 З 1
{3}
28 км ясно +13.5 +12.0 91 +14 +15 1028.7 1006.4 +11.3
07 12.09 З 1
{2}
35 км ясно +16.0 +12.9 82 +17 +21 1029.4 1007.1
08 12.09 ЮЗ 1
{2}
50 км ясно +19.1 +13.3 69 +21 +29 комфорт 1029.8 1007.7
09 12.09 СЗ 1
{3}
60 км ясно +21.6 +14.4 64 +25 +35 комфорт 1030.0 1008.1
10 12.09 СВ 3
{7}
55 км ясно +23.6 +11.0 45 +25 +34 комфорт 1029.8 1008.1
11 12.09 СВ 3
{6}
22 км ясно +24.3 +11.2 44 +26 +35 жарко 1029.7 1008.0
12 12.09 С 2
{6}
>70 км 1/1 1500 м
[]
+24.9 +9.9 39 +26 +35 жарко 1029.3 1007.7
13 12.09 В 2
{4}
23 км 1/1 1500 м
[]
+25.4 +10.3 39 +26 +34 жарко 1029.0 1007.4
14 12.09 С 3
{4}
>70 км ясно +25.3 +9.8 38 +26 +31 жарко 1028.7 1007.1
15 12.09 С 2
{4}
>70 км ясно +25.1 +10.0 39 +26 +29 жарко 1028.6 1007.0
16 12.09 В 1
{3}
>70 км ясно +24.7 +10.9 42 +26 +27 жарко 1028.4 1006.8
17 12.09 Ю 1
{2}
>70 км ясно +22.0 +11.7 52 +24 +24 комфорт 1029.0 1007.2
18 12.09 СВ 1
{1}
50 км ясно +17.7 +13.2 75 +19 +19 1029.7 1007.5 +25.7
19 12.09 С 1
{1}
30 км ясно +15.8 +12.9 83 +16 +16 1030.4 1008.1
20 12.09 штиль 0
{1}
23 км ясно +14.7 +13.0 90 +14 +14 1030.8 1008.5
21 12.09 штиль 0
{1}
25 км ясно +13.9 +12.4 91 +13 +13 1031.3 1008.8
22 12.09 СЗ 1
{1}
21 км ясно +13.3 +12.1 92 +13 +13 1031.4 1008.9
23 12.09 СЗ 1
{1}
27 км ясно +12.7 +11.6 93 +13 +13 1031.6 1009.0
00 13.09 З 1
{1}
21 км ясно +12.3 +11.3 94 +12 +12 1031.5 1008.9
01 13.09 СЗ 1
{3}
23 км ясно +12.0 +10.8 92 +12 +12 1031.5 1008.8
02 13.09 СЗ 2
{3}
23 км ясно +12.0 +11.0 94 +11 +11 1031.5 1008.7
03 13.09 З 1
{2}
24 км ясно +11.6 +10.6 94 +11 +11 1031.5 1008.8
04 13.09 З 2
{3}
24 км 1/1 2000 м
[]
+11.9 +10.9 94 +11 +11 1031.6 1009.1
05 13.09 З 2
{4}
29 км ясно +11.9 +11.0 94 +11 +11 1031.9 1009.2
06 13.09 З 3
{4}
45 км 1/0 2000 м
[]
+14.2 +12.0 87 +13 +14 1031.5 1009.1 +11.5
07 13.09 З 3
{5}
50 км ясно +16.6 +13.0 79 +16 +19 1031.5 1009.2
08 13.09 З 3
{5}
60 км ясно +19.7 +13.7 68 +22 +27 комфорт 1031.3 1009.3
09 13.09 З 2
{4}
>70 км ясно +21.7 +13.1 58 +24 +33 комфорт 1030.9 1009.0
10 13.09 Ю 2
{4}
1200 м 4/4 2000 м
[]
+23.4 +11.7 48 +26 +32 жарко 1030.3 1008.5
11 13.09 Ю 2
{4}
65 км 1/1 1500 м
[]
+24.7 +11.5 44 +26 +36 жарко 1029.9 1008.3
12 13.09 Ю 1
{3}
55 км ясно +25.1 +11.4 42 +26 +39 жарко 1029.2 1007.6
13 13.09 З 2
{4}
70 км 1/1 1500 м
[]
+25.8 +12.6 44 +28 +35 жарко 1028.8 1007.2
14 13.09 ЮЗ 2
{4}
>70 км ясно +26.4 +13.2 44 +28 +34 жарко 1028.3 1006.8
15 13.09 СЗ 1
{3}
>70 км ясно +26.5 +12.6 42 +28 +31 жарко 1028.0 1006.5
16 13.09 ЮВ 1
{3}
>70 км ясно +25.9 +12.4 43 +27 +28 жарко 1028.0 1006.5
17 13.09 ЮВ 1
{2}
>70 км ясно +23.3 +13.1 53 +26 +26 жарко 1028.3 1006.6
18 13.09 С 1
{1}
60 км ясно +18.9 +14.1 74 +21 +21 комфорт 1028.9 1006.9 +26.9
19 13.09 штиль 0
{1}
50 км ясно +16.8 +13.9 83 +17 +17 1029.5 1007.3
20 13.09 С 1
{1}
40 км ясно +15.8 +13.7 87 +16 +16 1029.8 1007.5
21 13.09 штиль 0
{1}
40 км ясно +14.7 +12.9 89 +14 +14 1030.3 1007.9
22 13.09 З 1
{1}
35 км ясно +14.1 +12.8 92 +14 +14 1030.3 1007.9
23 13.09 СЗ 1
{2}
30 км ясно +13.8 +12.7 93 +14 +14 1030.3 1007.8
00 14.09 З 1
{2}
23 км 4/0 2000 м
[]
+13.7 +12.7 94 +14 +14 1030.2 1007.8
01 14.09 ЮЗ 1
{2}
1600 м 9/9 2000 м
[]
+14.2 +13.1 93 +14 +14 1030.1 1007.7
02 14.09 З 1
{1}
8000 м 9/9 2000 м
[]
+14.0 +13.0 94 +14 +14 1029.9 1007.5
03 14.09 СЗ 1
{2}
26 км 10/10 1500 м
[]
+14.7 +13.6 93 +15 +15 1029.9 1007.6
04 14.09 З 1
{2}
30 км 9/9 2000 м
[]
+14.6 +13.4 93 +15 +15 1030.2 1007.8
05 14.09 З 1
{2}
3000 м 9/9 2000 м
[]
+14.8 +13.7 93 +15 +15 1030.5 1008.1
06 14.09 З 1
{3}
2100 м 10/0 2000 м
[]
+15.9 +14.5 91 +17 +17 1030.7 1008.4 +13.6
07 14.09 З 2
{2}
3200 м 10/10 1500 м
[]
+17.2 +15.1 87 +18 +18 1030.9 1008.7
08 14.09 З 1
{2}
5000 м 10/10 1500 м
[]
+18.0 +15.7 86 +19 +19 1031.2 1009.0
09 14.09 СЗ 2
{3}
8000 м 9/9 1500 м
[]
+19.5 +16.2 81 +22 +23 комфорт 1031.1 1009.2
10 14.09
{4}
20 км 9/9 1500 м
[]
+21.4 +14.8 66 1030.9 1009.0
11 14.09 С 3
{5}
60 км 9/9 2000 м
[]
+23.0 +14.2 58 +27 +27 душно 1030.4 1008.6
12 14.09 С 3
{6}
60 км 9/9 1500 м
[]
+22.8 +13.1 54 +26 +27 жарко 1030.0 1008.1
13 14.09 СВ 2
{5}
>70 км 5/5 1500 м
[]
+23.6 +13.6 53 +26 +30 жарко 1029.1 1007.4
14 14.09 СВ 3
{5}
70 км 9/9 1500 м
[]
+23.6 +13.2 52 +26 +26 жарко 1028.7 1007.0
15 14.09 СВ 2
{5}
>70 км 9/9 1500 м
[]
+23.1 +13.1 53 +26 +26 жарко 1028.5 1006.7
16 14.09 СВ 2
{4}
>70 км ясно +22.6 +13.7 57 +26 +27 жарко 1028.3 1006.6
17 14.09 СВ 1
{2}
60 км ясно +20.7 +13.2 62 +24 +24 комфорт 1028.6 1006.7
18 14.09 СВ 1
{3}
50 км 1/1 1500 м
[]
+17.6 +13.5 77 +19 +19 1029.2 1007.1 +24.0
19 14.09 штиль 0
{1}
40 км 1/1 2000 м
[]
+15.8 +13.2 85 +16 +16 1029.3 1007.0
20 14.09 В 1
{1}
50 км 9/9 1500 м
[]
+15.9 +13.9 88 +17 +17 1029.6 1007.3
21 14.09 В 1
{2}
50 км 10/10 1500 м
[]
+16.5 +13.3 81 +17 +17 1029.8 1007.6
22 14.09 В 1
{2}
60 км 9/9 2000 м
[]
+16.1 +12.9 81 +17 +17 1029.4 1007.2
23 14.09 В 1
{2}
60 км 8/8 2000 м
[]
+16.1 +11.6 75 +17 +17 1029.4 1007.2
00 15.09 штиль 0
{1}
35 км 9/0 2000 м
[]
+15.6 +11.3 76 +15 +15 1029.3 1006.9
01 15.09 штиль 0
{1}
45 км 1/1 1500 м
[]
+14.5 +11.5 82 +14 +14 1029.2 1006.8
02 15.09 штиль 0
{1}
35 км ясно +12.6 +10.5 87 +12 +12 1029.1 1006.5
03 15.09 С 1
{2}
30 км 5/5 1300 м
[]
+11.8 +10.5 92 +12 +12 1028.9 1006.3
04 15.09 З 1
{1}
30 км 9/9 1500 м
[]
+12.4 +11.0 91 +12 +12 1028.4 1005.8
05 15.09 СЗ 1
{1}
40 км 5/5 1000 м
[]
+11.9 +10.7 92 +12 +12 1028.5 1005.9
06 15.09 В 1
{2}
50 км ясно +14.6 +12.3 86 +15 +16 1028.3 1005.9 +11.8
07 15.09 В 1
{2}
50 км ясно +17.0 +12.2 73 +18 +22 1028.3 1006.1
08 15.09 В 1
{2}
50 км ясно +19.2 +11.7 62 +21 +28 комфорт 1027.7 1005.7
09 15.09 Ю 2
{4}
9000 м ясно +20.4 +11.8 58 +23 +31 комфорт 1027.2 1005.3
10 15.09 Ю 1
{4}
29 км ясно +21.8 +11.8 53 +24 +36 комфорт 1026.4 1004.6
11 15.09 ЮЗ 3
{6}
35 км ясно +22.9 +13.3 55 +26 +35 жарко 1025.3 1003.7
12 15.09 ЮЗ 3
{6}
65 км ясно +24.0 +13.2 51 +26 +35 жарко 1024.5 1002.8
13 15.09 Ю 3
{6}
>70 км ясно +24.7 +13.2 49 +27 +33 жарко 1023.7 1002.0
14 15.09 ЮЗ 3
{6}
70 км ясно +25.1 +13.5 49 +27 +32 жарко 1022.7 1001.2
15 15.09 ЮЗ 3
{5}
>70 км ясно +25.2 +14.5 51 +28 +30 жарко 1022.1 1000.7
16 15.09 Ю 2
{4}
60 км ясно +24.5 +13.7 51 +27 +27 жарко 1021.9 1000.3
17 15.09 Ю 1
{3}
>70 км ясно +22.3 +13.3 57 +25 +25 комфорт 1021.5 999.8
18 15.09 ЮВ 1
{2}
50 км ясно +18.5 +13.7 74 +20 +20 1021.6 999.7 +25.8
19 15.09 В 1
{1}
29 км ясно +16.1 +13.5 85 +17 +17 1021.8 999.6
20 15.09 штиль 0
{1}
24 км ясно +15.0 +13.0 88 +15 +15 1021.8 999.6
21 15.09 штиль 0
{1}
26 км ясно +13.8 +12.4 91 +13 +13 1021.6 999.3
22 15.09 СВ 1
{1}
18 км ясно +13.3 +12.2 93 +13 +13 1021.5 999.1
23 15.09 С 1
{1}
13 км ясно +12.5 +11.4 93 +12 +12 1021.3 998.9
00 16.09 штиль 0
{1}
20 км ясно +11.9 +10.9 94 +11 +11 1021.2 998.7
01 16.09
{1}
15 км ясно +11.4 +10.4 94 1020.8 998.3
02 16.09 штиль 0 12 км ясно +11.5 +10.8 95 +11 +11 1020.7 998.3
03 16.09 СВ 1
{1}
8000 м ясно +10.8 +10.0 95 +10 +10 1020.8 998.2
04 16.09 З 1
{2}
8000 м ясно +10.8 +10.1 95 +10 +10 1020.4 998.0
05 16.09 З 1
{2}
13 км ясно +11.3 +10.7 96 +11 +11 1020.5 998.1
06 16.09 З 1
{2}
19 км 1/1 30 м
[]
+13.1 +12.5 96 +13 +14 1020.3 998.0 +10.5
07 16.09 З 1
{2}
30 км ясно +16.3 +15.0 92 +17 +21 1020.3 998.3
08 16.09 З 2
{3}
30 км ясно +19.2 +16.0 82 +21 +27 комфорт 1019.9 998.1
09 16.09 З 2
{3}
45 км ясно +22.7 +17.3 72 +28 +36 душно 1019.3 997.8
10 16.09 Ю 2
{4}
60 км ясно +24.6 +16.9 62 +28 +38 душно 1018.8 997.4
11 16.09 Ю 2
{4}
55 км ясно +26.3 +16.9 56 +30 +41 душно 1018.1 996.8
12 16.09 ЮВ 2
{5}
>70 км ясно +27.2 +15.5 49 +30 +40 душно 1017.3 996.1
13 16.09 Ю 2
{5}
60 км ясно +28.0 +15.0 45 +31 +38 душно 1016.5 995.2
14 16.09 Ю 2
{5}
>70 км ясно +28.0 +14.6 44 +30 +36 жарко 1015.6 994.5
15 16.09 Ю 2
{5}
>70 км ясно +27.8 +14.0 43 +30 +33 жарко 1015.2 994.1
16 16.09 Ю 1
{3}
65 км ясно +26.7 +14.3 46 +29 +30 жарко 1014.9 993.7
17 16.09 ЮВ 1
{2}
17 км ясно +24.1 +14.6 55 +27 +27 жарко 1015.0 993.6
18 16.09 штиль 0
{2}
30 км 6/0
[]
+20.8 +15.1 70 +24 +24 комфорт 1015.1 993.6 +28.5
19 16.09 В 1
{1}
21 км 9/9
[]
+19.1 +15.8 81 +22 +22 комфорт 1015.6 993.8
20 16.09 В 1
{1}
30 км 3/3
[]
+18.0 +15.6 86 +19 +19 1015.6 993.8
21 16.09 СВ 1
{1}
30 км ясно +16.9 +14.9 88 +18 +18 1015.5 993.6
22 16.09 штиль 0
{1}
24 км ясно +16.2 +14.9 92 +16 +16 1015.4 993.5
23 16.09 СЗ 1
{2}
22 км 6/6
[]
+15.7 +14.6 93 +16 +16 1015.4 993.4
00 17.09 С 1
{4}
18 км 4/0
[]
+15.2 +14.2 94 +16 +16 1015.5 993.6
01 17.09 СВ 1
{2}
24 км 8/8
[]
+15.2 +14.3 94 +16 +16 1015.6 993.6
02 17.09 СЗ 1
{3}
19 км 9/9
[]
+15.8 +14.8 94 +16 +16 1015.2 993.2
03 17.09 С 1
{3}
21 км 10/0
[]
+16.1 +15.1 94 +17 +17 1015.2 993.3
04 17.09 С 1
{3}
13 км 9/9
[]
+16.3 +15.3 94 +17 +17 1015.1 993.2
05 17.09 С 1
{2}
17 км 10/10
[]
+16.2 +15.3 94 +17 +17 1015.6 993.6
06 17.09 ЮЗ 1
{2}
22 км 9/0
[]
+17.3 +16.3 94 +18 +18 1015.2 993.4 +15.0
07 17.09 СЗ 1
{2}
30 км 9/9
[]
+19.2 +17.0 87 +22 +22 комфорт 1015.6 993.9
08 17.09 С 1
{2}
40 км 9/9
[]
+21.7 +16.2 71 +25 +26 комфорт 1015.7 994.1
09 17.09 ЮВ 1
{2}
60 км 8/8 1500 м
[]
+23.0 +16.0 65 +27 +29 душно 1015.5 994.1
10 17.09 В 2
{5}
60 км 9/9
[]
+25.5 +15.3 53 +28 +29 жарко 1014.9 993.5
11 17.09 В 3
{5}
>70 км 9/9
[]
+25.0 +14.9 53 +28 +29 жарко 1014.4 993.1
12 17.09 СВ 4
{6}
>70 км 9/0
[]
+26.0 +14.8 50 +29 +29 душно 1013.7 992.5
13 17.09 В 2
{4}
>70 км 9/9
[]
+25.3 +15.3 54 +28 +29 жарко 1013.2 992.0
14 17.09 В 2
{4}
60 км 8/8
[]
+25.6 +15.3 53 +29 +30 душно 1012.4 991.2
15 17.09 В 2
{4}
>70 км 1/0
[]
+25.5 +16.2 56 +29 +31 душно 1012.1 990.9
16 17.09 В 2
{4}
60 км ясно +24.5 +16.1 59 +28 +28 душно 1011.9 990.6
17 17.09 Ю 2
{4}
60 км 6/6
[]
+22.2 +16.7 71 +27 +27 душно 1012.0 990.5
18 17.09 В 2
{4}
50 км 10/0
[]
+21.7 +16.7 73 +26 +26 душно 1012.8 991.4 +26.4
19 17.09 СВ 3
{6}
60 км 9/9
[]
+20.6 +16.2 76 +24 +24 комфорт 1013.6 992.0
20 17.09 СВ 3
{5}
40 км 6/6
[]
+19.0 +15.8 82 +21 +21 комфорт 1014.4 992.7
21 17.09 СВ 1
{3}
28 км 1/1 1500 м
[]
+17.9 +15.5 86 +19 +19 1014.7 992.9
22 17.09 ЮВ 1
{2}
28 км 9/9
[]
+16.6 +15.3 92 +17 +17 1015.3 993.4
23 17.09 штиль 0
{1}
16 км 4/4
[]
+15.9 +14.5 91 +16 +16 1015.6 993.6
00 18.09 С 1
{1}
7000 м 3/0
[]
+14.7 +13.6 93 +15 +15 1016.1 994.0
01 18.09 В 1
{2}
15 км 8/8 1500 м
[]
+14.3 +13.4 94 +15 +15 1016.5 994.3
02 18.09 В 2
{2}
30 км 4/4 2000 м
[]
+14.9 +13.6 92 +15 +15 1016.9 994.8
03 18.09 ЮВ 1
{2}
55 км 9/9 1300 м
[]
+14.5 +11.4 82 +15 +15 1017.9 995.7
04 18.09 В 2
{4}
60 км 10/10 1000 м
[]
+14.7 +9.4 71 +14 +14 1018.8 996.6
05 18.09 СВ 4
{7}
60 км 9/9 1000 м
[]
+14.2 +8.0 66 +13 +13 1020.0 997.8
06 18.09 В 4
{8}
60 км 10/10 1320 м
[]
+13.6 +6.0 60 +12 +12 1020.9 998.7 +13.6
07 18.09 В 3
{7}
>70 км 9/9
[]
+14.4 +6.2 58 +14 +14 1021.9 999.6
08 18.09 В 3
{5}
60 км 9/9 1500 м
[]
+14.7 +5.5 54 +14 +15 1022.9 1000.6
09 18.09 В 2
{4}
>70 км 10/0 2000 м
[]
+15.0 +5.2 52 +15 +15 1023.2 1000.9
10 18.09 Ю 1
{4}
60 км 10/10 2000 м
[]
+15.7 +5.5 51 +17 +17 1023.6 1001.4
11 18.09 ЮЗ 3
{5}
55 км 10/10 2000 м
[]
+15.8 +6.4 54 +15 +15 1023.3 1001.1
12 18.09 Ю 3
{6}
60 км 6/0
[]
+16.1 +6.4 53 +16 +19 1023.1 1001.0
13 18.09 Ю 3
{6}
40 км 10/10
[]
+15.3 +6.1 54 +15 +15 1023.1 1000.8
14 18.09 Ю 2
{5}
50 км 9/9 2000 м
[]
+15.4 +6.3 55 +15 +16 1023.0 1000.7
15 18.09 ЮЗ 3
{5}
60 км 9/0 2000 м
[]
+14.7 +7.2 61 +14 +14 1022.9 1000.6
16 18.09 Ю 1
{5}
60 км 10/10
[]
+14.2 +7.1 62 +15 +15 1023.1 1000.8

 

Местоположение метеостанции Мурска-Собота (Словения): широта 46.65 долгота 16.18 высота над уровнем моря 188 м.

В архиве по умолчанию представлена погода в Мурска-Соботе за последнюю неделю. Архивные данные за месяц целиком и за предыдущие месяцы, начиная с января 2011 года, Вы можете получить, выбрав интересующий диапазон дат из раскрывающегося списка и нажав кнопку "Ввод!".


*Определитесь, кто Вы:
робот инопланетянин человек

Внимание! Время в таблицах - всемирное. Для получения местного времени необходимо прибавить поправку, которая равна 1 ч.

Смотрите также архив погоды в соседних городах и на ближайших метеорологических станциях:

Погода в Бад-Радкерсбурге (Австрия) (16 км)
Погода в Сентготтхарде (Венгрия) (32 км)
Погода в Бад-Глайхенбере (Австрия) (32 км)
Погода в Фельбахе (Австрия) (40 км)
Погода в Вараздине (Хорватия) (42 км)
Погода в Мариборе (Словения) (43 км)
Погода в Лейбнице (Австрия) (50 км)
Погода в Залаэгерсеге (Венгрия) (53 км)
Погода в Кляйнциккене (Австрия) (62 км)
Погода в Крапине (Хорватия) (62 км)

Пояснения к столбцам:

Ветер - указаны скорость ветра в м/с - средняя за 10 мин, порывы в срок и между сроками (в фигурных скобках) и направление, откуда дует ветер: С - северный, СВ - северо-восточный, В - восточный, ЮВ - юго-восточный, Ю - южный, ЮЗ - юго-западный, З - западный, СЗ - северо-западный.
Видимость - горизонтальная дальность видимости в метрах или километрах. При видимости от 1 до 10 км при отсутствии осадков обычно наблюдается дымка, при ухудшении видимости до 1 км и менее - туман. В сухую погоду видимость может ухудшаться дымом, пылью или мглою.
Явления - указаны атмосферные явления, наблюдавшиеся в срок или в последний час перед сроком; фигурными скобками обозначены явления, наблюдавшиеся между сроками (за 1-3 часа до срока); квадратными скобками обозначены град или гололедные отложения с указанием их диаметра в мм.
Облачность - указаны через наклонную черту общая и нижняя облачность в баллах и высота нижней границы облаков в метрах; квадратными скобками обозначены формы облаков: Ci - перистые, Cs - перисто-слоистые, Cc - перисто-кучевые, Ac - высококучевые, As - высокослоистые, Sc - слоисто-кучевые, Ns - слоисто-дождевые, Cu - кучевые, Cb - кучево-дождевые. Подробнее классификацию облаков см. в Атласе облаков (PDF).
T - Температура воздуха - температура, измеренная на высоте 2 м над землей.
Td - Температура точки росы - температура, при понижении до которой содержащийся в воздухе водяной пар достигнет насыщения.
f - Относительная влажность воздуха - влажноcть воздуха, измеренная на высоте 2 м над землей.
Te - Эффективная температура - температура, которую ощущает одетый по сезону человек в тени. Характеристика душности погоды. При расчете учитывается влияние влажности воздуха и скорости ветра на теплоощущения человека.
Tes - Эффективная температура на солнце - температура, которую ощущает человек, с поправкой на солнечный нагрев. Характеристика знойности погоды. Зависит от высоты солнца над горизонтом, облачности и скорости ветра. Ночью, в пасмурную погоду, а также при ветре 12 м/с и более поправка равна нулю.
P - Атмосферное давление - приведенное к уровню моря атмосферное давление.
Po - Атмосферное давление - измеренное на уровне метеостанции атмосферное давление.
Tmin - Минимальная температура - минимум температуры воздуха на высоте 2 м над землей.
Tmax - Максимальная температура - максимум температуры воздуха на высоте 2 м над землей.
R - Количество осадков - Количество выпавших осадков за период времени, мм. При наведении курсора мыши на число - период времени, за который выпало указанное количество осадков.
R24 - Количество осадков - Количество выпавших осадков за 24 часа, мм.
S - Снежный покров - Высота снежного покрова, см. При наведении курсора мыши на число - состояние снежного покрова и степень покрытия местности в баллах.